Location: Observatoire de l'Aigle
(47.0607°N, 71.3152°W)
Time: 09:41:02
(UTC-04:00)

Amateur Radio Satellites - All Passes

Search period start: 01 September 2014 09:11
Search period end: 02 September 2014 09:11
Location: Observatoire de l'Aigle, 47.0607°N, 71.3152°W

Satellite Date Start Highest point End Downlink Frequencies (MHz)
Time Altitude Azimuth
UKube-1 01 Sep 09:36:01 09:39:41 26° 95° (E) 09:43:19 145.840 MHz, 145.915 MHz
Oscar 11 01 Sep 09:40:41 09:43:59 21° 92° (E) 09:47:15 145.825 FM, Beacon 2401.500 USB
SO-50 01 Sep 09:47:28 09:50:27 16° 27° (NNE) 09:53:28 436.795 FM
FUNcube-1 01 Sep 10:10:47 10:13:59 19° 91° (E) 10:17:13 145.950 - 145.970 MHz USB
RS-15 01 Sep 10:16:26 10:26:46 44° 329° (NNW) 10:37:10 29.354 - 29.394 USB, Beacon 29.352 USB
HO-68 01 Sep 10:17:12 10:24:25 89° 288° (WNW) 10:31:35 435.675 MHz FM
ISS 01 Sep 10:38:03 10:41:17 51° 148° (SSE) 10:44:32 145.800 FM
UKube-1 01 Sep 11:12:00 11:15:57 35° 293° (WNW) 11:19:53 145.840 MHz, 145.915 MHz
Oscar 11 01 Sep 11:16:13 11:20:23 44° 290° (WNW) 11:24:32 145.825 FM, Beacon 2401.500 USB
SO-50 01 Sep 11:27:15 11:31:59 59° 48° (NE) 11:36:46 436.795 FM
UOSAT-12 01 Sep 11:38:04 11:41:05 16° 27° (NNE) 11:44:04 437.025 FM, 437.400 FM
MaSat-1 01 Sep 11:42:31 11:44:40 13° 99° (E) 11:46:50 437.345 MHz
FUNcube-1 01 Sep 11:46:16 11:50:41 53° 288° (WNW) 11:55:09 145.950 - 145.970 MHz USB
Oscar 16 01 Sep 11:47:48 11:50:50 16° 56° (NE) 11:53:52 437.025 USB, Beacon 2401.1428
HO-68 01 Sep 12:06:02 12:11:15 22° 309° (NW) 12:16:27 435.675 MHz FM
JAS-1B 01 Sep 12:08:12 12:15:02 24° 53° (NE) 12:21:15 435.800 - 435.900 CW/SSB
ISS 01 Sep 12:14:52 12:18:05 45° 347° (NNW) 12:21:19 145.800 FM
AO-27 01 Sep 12:18:54 12:21:27 14° 54° (NE) 12:24:00 436.795 MHz FM
RS-15 01 Sep 12:33:19 12:42:42 31° 2° (N) 12:52:13 29.354 - 29.394 USB, Beacon 29.352 USB
Oscar 19 01 Sep 12:49:24 12:54:19 46° 68° (ENE) 12:59:17 437.125 CW, 437.150 USB
Gurwin Techsat 1B 01 Sep 12:56:31 12:59:13 14° 55° (NE) 13:01:54 435.225 FM
AO-Echo 01 Sep 13:03:47 13:08:07 31° 66° (ENE) 13:12:20 ?
SO-50 01 Sep 13:08:31 13:12:13 22° 247° (WSW) 13:15:56 436.795 FM
MaSat-1 01 Sep 13:15:50 13:20:49 83° 118° (ESE) 13:26:01 437.345 MHz
UOSAT-12 01 Sep 13:17:30 13:22:12 60° 48° (NE) 13:26:51 437.025 FM, 437.400 FM
Oscar 16 01 Sep 13:24:19 13:29:29 87° 255° (WSW) 13:34:43 437.025 USB, Beacon 2401.1428
ITAMSAT 1 01 Sep 13:25:47 13:30:41 45° 68° (ENE) 13:35:36 435.822 SSB
Uribyol 2 01 Sep 13:35:07 13:40:09 57° 70° (ENE) 13:45:13 436.500 FM
TMSAT-1 01 Sep 13:44:56 13:49:12 26° 62° (ENE) 13:53:28 436.925 FM
AO-7 01 Sep 13:50:35 13:56:20 21° 44° (NE) 14:02:04 29.400 - 29.500 MHz
ISS 01 Sep 13:52:07 13:55:16 37° 7° (N) 13:58:24 145.800 FM
JAS-1B 01 Sep 13:54:53 14:04:34 80° 72° (ENE) 14:13:04 435.800 - 435.900 CW/SSB
AO-27 01 Sep 13:54:59 14:00:10 81° 74° (ENE) 14:05:22 436.795 MHz FM
Oscar 19 01 Sep 14:29:35 14:33:53 26° 267° (W) 14:38:13 437.125 CW, 437.150 USB
Gurwin Techsat 1B 01 Sep 14:33:03 14:38:21 80° 74° (ENE) 14:43:42 435.225 FM
AO-Echo 01 Sep 14:42:13 14:46:49 36° 263° (W) 14:51:19 ?
RS-15 01 Sep 14:47:48 14:58:24 49° 35° (NE) 15:09:17 29.354 - 29.394 USB, Beacon 29.352 USB
MaSat-1 01 Sep 14:54:38 14:58:29 21° 318° (NW) 15:02:23 437.345 MHz
UOSAT-12 01 Sep 14:58:24 15:01:58 21° 247° (WSW) 15:05:30 437.025 FM, 437.400 FM
ITAMSAT 1 01 Sep 15:06:03 15:10:22 27° 266° (W) 15:14:43 435.822 SSB
Oscar 16 01 Sep 15:07:30 15:09:37 12° 274° (W) 15:11:45 437.025 USB, Beacon 2401.1428
Uribyol 2 01 Sep 15:16:10 15:20:00 21° 268° (W) 15:23:52 436.500 FM
TMSAT-1 01 Sep 15:23:40 15:28:49 52° 260° (W) 15:34:00 436.925 FM
ISS 01 Sep 15:28:54 15:32:15 87° 205° (SSW) 15:35:35 145.800 FM
Uosat F 01 Sep 15:33:49 15:38:35 46° 68° (ENE) 15:43:21 435.120 FM
AO-27 01 Sep 15:37:30 15:40:19 15° 272° (W) 15:43:10 436.795 MHz FM
AO-7 01 Sep 15:39:32 15:47:48 73° 66° (ENE) 15:56:06 29.400 - 29.500 MHz
Sapphire 01 Sep 15:40:25 15:44:01 18° 106° (ESE) 15:47:38 437.095 MHz 1200 baud AX-25 AFSK
JAS-1B 01 Sep 15:47:41 15:55:39 29° 269° (W) 16:02:58 435.800 - 435.900 CW/SSB
JAS-2 01 Sep 15:55:52 15:58:00 12° 54° (NE) 16:00:05 435.800 - 435.900 CW/SSB, 435.910 FM
PCSat 01 Sep 16:08:12 16:12:59 33° 112° (ESE) 16:17:47 145.825 MHz
Gurwin Techsat 1B 01 Sep 16:15:56 16:18:59 15° 272° (W) 16:22:02 435.225 FM
OPAL 01 Sep 16:59:08 17:04:04 40° 100° (E) 17:08:56 ?
RS-15 01 Sep 17:00:28 17:11:22 67° 241° (WSW) 17:22:41 29.354 - 29.394 USB, Beacon 29.352 USB
Hamsat 01 Sep 17:02:49 17:06:39 32° 68° (ENE) 17:10:32 145.90 MHz
ISS 01 Sep 17:06:24 17:08:35 16° 224° (SW) 17:10:44 145.800 FM
Uosat F 01 Sep 17:13:28 17:17:34 25° 266° (W) 17:21:42 435.120 FM
Sapphire 01 Sep 17:21:25 17:26:49 76° 305° (NW) 17:32:16 437.095 MHz 1200 baud AX-25 AFSK
AO-7 01 Sep 17:34:20 17:41:17 29° 267° (W) 17:48:16 29.400 - 29.500 MHz
JAS-2 01 Sep 17:36:23 17:42:19 71° 73° (ENE) 17:47:41 435.800 - 435.900 CW/SSB, 435.910 FM
PCSat 01 Sep 17:51:04 17:56:15 46° 311° (NW) 18:01:30 145.825 MHz
SO-67 01 Sep 18:10:15 18:12:54 21° 67° (ENE) 18:15:34 435.3500 MHz FM
OPAL 01 Sep 18:38:13 18:42:50 32° 298° (WNW) 18:47:24 ?
Hamsat 01 Sep 18:38:52 18:42:37 28° 266° (W) 18:46:25 145.90 MHz
STRAND 1 01 Sep 18:46:27 18:50:38 25° 93° (E) 18:54:46 ?
HO-68 01 Sep 19:03:27 19:08:43 23° 52° (NE) 19:13:59 435.675 MHz FM
Sapphire 01 Sep 19:07:18 19:11:10 19° 327° (NNW) 19:15:03 437.095 MHz 1200 baud AX-25 AFSK
RS-15 01 Sep 19:15:26 19:21:30 17° 264° (W) 19:27:43 29.354 - 29.394 USB, Beacon 29.352 USB
JAS-2 01 Sep 19:23:55 19:27:53 18° 269° (W) 19:31:38 435.800 - 435.900 CW/SSB, 435.910 FM
PCSat 01 Sep 19:38:17 19:41:06 14° 335° (NNW) 19:43:56 145.825 MHz
SO-67 01 Sep 19:42:49 19:45:50 27° 264° (W) 19:48:52 435.3500 MHz FM
MaSat-1 01 Sep 19:55:58 19:56:57 11° 30° (NNE) 19:57:54 437.345 MHz
STRAND 1 01 Sep 20:25:09 20:30:03 48° 291° (WNW) 20:34:56 ?
UKube-1 01 Sep 20:34:22 20:38:17 34° 67° (ENE) 20:42:13 145.840 MHz, 145.915 MHz
Oscar 11 01 Sep 20:38:43 20:42:14 24° 65° (ENE) 20:45:46 145.825 FM, Beacon 2401.500 USB
HO-68 01 Sep 20:48:25 20:55:35 89° 252° (WSW) 21:02:47 435.675 MHz FM
Saudisat 1A 01 Sep 21:09:40 21:11:38 13° 109° (ESE) 21:13:37 436.775 MHz
FUNcube-1 01 Sep 21:10:36 21:13:46 21° 63° (ENE) 21:16:59 145.950 - 145.970 MHz USB
MaSat-1 01 Sep 21:30:49 21:35:21 43° 53° (NE) 21:39:18 437.345 MHz
KITSAT 1 01 Sep 21:38:09 21:42:42 16° 100° (E) 21:47:16 435.175 FM
AO-40 01 Sep 22:06:54 03:59:01 35° 179° (S) 06:47:48 Beacon 2401.320
UKube-1 01 Sep 22:10:52 22:14:32 27° 265° (W) 22:18:14 145.840 MHz, 145.915 MHz
Oscar 11 01 Sep 22:14:11 22:18:14 38° 263° (W) 22:22:20 145.825 FM, Beacon 2401.500 USB
HO-68 01 Sep 22:39:33 22:44:15 18° 272° (W) 22:48:58 435.675 MHz FM
Sapphire 01 Sep 22:41:14 22:43:08 12° 20° (NNE) 22:45:01 437.095 MHz 1200 baud AX-25 AFSK
FUNcube-1 01 Sep 22:45:53 22:49:53 43° 262° (W) 22:54:01 145.950 - 145.970 MHz USB
Saudisat 1A 01 Sep 22:46:09 22:50:34 86° 307° (NW) 22:55:01 436.775 MHz
MaSat-1 01 Sep 23:08:26 23:12:01 23° 255° (WSW) 23:15:14 437.345 MHz
PCSat 01 Sep 23:09:56 23:13:09 16° 28° (NNE) 23:16:20 145.825 MHz
KITSAT 1 01 Sep 23:28:40 23:36:43 73° 120° (ESE) 23:44:47 435.175 FM
Sapphire 02 Sep 00:23:23 00:28:18 34° 44° (NE) 00:33:12 437.095 MHz 1200 baud AX-25 AFSK
Saudisat 1A 02 Sep 00:27:41 00:30:48 19° 328° (NNW) 00:33:57 436.775 MHz
PCSat 02 Sep 00:52:29 00:57:50 54° 51° (NE) 01:03:08 145.825 MHz
Oscar 19 02 Sep 00:59:46 01:02:01 13° 87° (E) 01:04:16 437.125 CW, 437.150 USB
KITSAT 1 02 Sep 01:25:23 01:32:47 38° 323° (NW) 01:40:13 435.175 FM
Oscar 16 02 Sep 01:33:27 01:37:50 27° 94° (E) 01:42:10 437.025 USB, Beacon 2401.1428
ITAMSAT 1 02 Sep 01:37:29 01:39:34 12° 87° (E) 01:41:38 435.822 SSB
JAS-1B 02 Sep 01:40:49 01:44:25 15° 82° (E) 01:47:47 435.800 - 435.900 CW/SSB
Uribyol 2 02 Sep 01:45:58 01:49:08 16° 89° (E) 01:52:17 436.500 FM
AO-27 02 Sep 02:05:37 02:09:41 23° 92° (E) 02:13:45 436.795 MHz FM
Sapphire 02 Sep 02:06:42 02:11:56 49° 244° (WSW) 02:17:08 437.095 MHz 1200 baud AX-25 AFSK
PCSat 02 Sep 02:36:25 02:40:57 28° 250° (WSW) 02:45:27 145.825 MHz
Oscar 19 02 Sep 02:36:52 02:42:07 89° 105° (ESE) 02:47:19 437.125 CW, 437.150 USB
OPAL 02 Sep 02:40:38 02:43:53 17° 54° (NE) 02:47:08 ?
AO-Echo 02 Sep 02:45:47 02:50:24 55° 100° (E) 02:55:02 ?
Gurwin Techsat 1B 02 Sep 02:46:44 02:51:07 26° 93° (E) 02:55:28 435.225 FM
Oscar 16 02 Sep 03:12:25 03:17:23 46° 292° (WNW) 03:22:19 437.025 USB, Beacon 2401.1428
ITAMSAT 1 02 Sep 03:14:36 03:19:50 87° 105° (ESE) 03:25:02 435.822 SSB
Uribyol 2 02 Sep 03:23:59 03:29:11 75° 287° (WNW) 03:34:23 436.500 FM
KITSAT 1 02 Sep 03:25:08 03:30:51 20° 352° (N) 03:36:35 435.175 FM
SO-50 02 Sep 03:25:15 03:29:40 61° 123° (ESE) 03:34:12 436.795 FM
Oscar 10/S400 02 Sep 03:26:07 04:32:11 29° 235° (SW) 08:04:27 145.825 - 145.975 CW/USB, Beacon 145.810 USB
JAS-1B 02 Sep 03:29:30 03:36:24 88° 287° (WNW) 03:42:19 435.800 - 435.900 CW/SSB
TMSAT-1 02 Sep 03:36:14 03:41:24 50° 99° (E) 03:46:32 436.925 FM
AO-7 02 Sep 03:39:11 03:44:34 18° 88° (E) 03:49:54 29.400 - 29.500 MHz
Uosat F 02 Sep 03:41:22 03:42:14 10° 86° (E) 03:43:06 435.120 FM
AO-27 02 Sep 03:44:28 03:49:31 53° 291° (WNW) 03:54:33 436.795 MHz FM
Saudisat 1A 02 Sep 03:53:09 03:53:56 10° 18° (NNE) 03:54:44 436.775 MHz
OPAL 02 Sep 04:17:01 04:22:06 83° 253° (WSW) 04:27:18 ?
Oscar 19 02 Sep 04:17:44 04:20:45 16° 304° (NW) 04:23:45 437.125 CW, 437.150 USB
AO-Echo 02 Sep 04:25:25 04:28:50 20° 299° (WNW) 04:32:15 ?
Gurwin Techsat 1B 02 Sep 04:26:14 04:31:20 49° 291° (WNW) 04:36:26 435.225 FM
ITAMSAT 1 02 Sep 04:55:35 04:58:39 16° 304° (NW) 05:01:43 435.822 SSB
Uribyol 2 02 Sep 05:05:31 05:07:49 13° 306° (NW) 05:10:06 436.500 FM
SO-50 02 Sep 05:06:48 05:10:36 26° 324° (NW) 05:14:29 436.795 FM
UOSAT-12 02 Sep 05:11:07 05:15:39 58° 122° (ESE) 05:20:18 437.025 FM, 437.400 FM
TMSAT-1 02 Sep 05:16:42 05:21:03 26° 298° (WNW) 05:25:23 436.925 FM
Uosat F 02 Sep 05:16:48 05:21:51 79° 104° (ESE) 05:26:51 435.120 FM
JAS-1B 02 Sep 05:21:25 05:25:54 19° 311° (NW) 05:30:00 435.800 - 435.900 CW/SSB
KITSAT 1 02 Sep 05:23:05 05:29:31 25° 22° (NNE) 05:35:56 435.175 FM
RS-15 02 Sep 05:23:06 05:27:46 14° 94° (E) 05:32:23 29.354 - 29.394 USB, Beacon 29.352 USB
AO-7 02 Sep 05:30:16 05:38:38 81° 108° (ESE) 05:46:55 29.400 - 29.500 MHz
Saudisat 1A 02 Sep 05:30:59 05:34:56 30° 40° (NE) 05:38:51 436.775 MHz
OPAL 02 Sep 06:00:01 06:01:47 12° 272° (W) 06:03:35 ?
STRAND 1 02 Sep 06:05:11 06:10:04 49° 69° (ENE) 06:14:58 ?
Hamsat 02 Sep 06:20:59 06:25:08 41° 98° (E) 06:29:13 145.90 MHz
JAS-2 02 Sep 06:26:21 06:31:23 44° 99° (E) 06:36:47 435.800 - 435.900 CW/SSB, 435.910 FM
UOSAT-12 02 Sep 06:52:08 06:56:08 27° 323° (NW) 07:00:13 437.025 FM, 437.400 FM
SO-50 02 Sep 06:52:10 06:52:49 10° 348° (NNW) 06:53:28 436.795 FM
Uosat F 02 Sep 06:56:56 07:00:02 17° 303° (WNW) 07:03:07 435.120 FM
SO-67 02 Sep 07:03:57 07:06:12 16° 92° (E) 07:08:26 435.3500 MHz FM
Saudisat 1A 02 Sep 07:10:27 07:14:39 43° 240° (WSW) 07:18:49 436.775 MHz
KITSAT 1 02 Sep 07:18:42 07:26:43 61° 48° (NE) 07:34:41 435.175 FM
AO-7 02 Sep 07:23:53 07:30:38 29° 309° (NW) 07:37:22 29.400 - 29.500 MHz
RS-15 02 Sep 07:26:50 07:37:36 62° 117° (ESE) 07:48:15 29.354 - 29.394 USB, Beacon 29.352 USB
STRAND 1 02 Sep 07:45:24 07:49:30 24° 267° (W) 07:53:38 ?
Hamsat 02 Sep 07:57:27 08:00:51 23° 296° (WNW) 08:04:14 145.90 MHz
JAS-2 02 Sep 08:11:58 08:16:23 28° 296° (WNW) 08:21:03 435.800 - 435.900 CW/SSB, 435.910 FM
HO-68 02 Sep 08:15:00 08:18:34 14° 85° (E) 08:22:07 435.675 MHz FM
SO-50 02 Sep 08:34:48 08:35:37 10° 13° (NNE) 08:36:27 436.795 FM
SO-67 02 Sep 08:36:12 08:39:24 35° 289° (WNW) 08:42:34 435.3500 MHz FM
UOSAT-12 02 Sep 08:36:42 08:37:54 11° 346° (NNW) 08:39:06 437.025 FM, 437.400 FM
